User: anonymous   Login
Location: ?????????
(38.5999°N, 22.7695°E)
Time: 14:22:03
(UTC+00:00)
Language:

Cosmos 1503 Rocket - Orbit

View from above orbital plane
View from above orbital plane
View from above satellite
View from above satellite

Ground track
Ground track

The orbit data is extracted from the following two-line orbital elements,

1 14402U 83103B   24196.18180762  .00000348  00000-0  12653-3 0  9996
2 14402  74.0433 191.9236 0025425 118.3728 241.9993 14.36696091133260
Epoch (UTC): 14 July 2024 04:21:48
Eccentricity: 0.0025425
inclination: 74.0433°
perigee height: 751 km
apogee height: 787 km
right ascension of ascending node: 191.9236°
argument of perigee: 118.3728°
revolutions per day: 14.36696091
mean anomaly at epoch: 241.9993°
orbit number at epoch: 13326

The dashed part of the orbit path shows where the satellite is in the earth's shadow,  

DLR